Other Public Products
Issued by NWS Grand Forks, ND

Home | Current Version | Previous Version | Graphics & Text | Print | Product List | Glossary On
Versions: 1 2 3 4 5 6 7 8 9 10 11 12 13 14 15 16 17 18 19 20 21 22 23 24 25 26 27 28 29 30 31 32 33 34 35 36 37 38 39 40 41 42 43 44 45 46 47 48 49 50
000
FPUS83 KFGF 250031
OPUFGF
PRAIRIE TO PINES WEATHER ROUNDUP
NATIONAL WEATHER SERVICE EASTERN NORTH DAKOTA/GRAND FORKS ND
700 PM CDT THU JUL 24 2014

 **SATELLITE DATA USED TO AUGMENT SKY COVER AT AUTOMATED STATIONS**
 *****  WEATHER ACROSS EASTERN NORTH DAKOTA  *****

CITY           SKY/WX    TMP DP  RH WIND       PRES   REMARKS
GRAND FORKS    PTSUNNY   75  61  61 S7        29.89R
6HR MIN TEMP:  72; 6HR MAX TEMP:  78; 6HR PCP: TRACE;

GRAND FORKS AF LGT RAIN  73  66  78 S9        29.88S
GRAND CITY NWS   N/A     72 N/A N/A S9          N/A
BUXTON           N/A     75  67  76 SE2         N/A
DEVILS LAKE    CLOUDY    72  61  68 E18G33    29.69F
6HR MIN TEMP:  72; 6HR MAX TEMP:  77;

FARGO          PTSUNNY   76  61  59 S12       29.87R
6HR MIN TEMP:  67; 6HR MAX TEMP:  78; 6HR PCP:  0.01;

WAHPETON ARPT  MOCLDY    72  59  64 S8        29.87R
$$

 *****  WEATHER ACROSS CENTRAL AND WESTERN NORTH DAKOTA  *****

CITY           SKY/WX    TMP DP  RH WIND       PRES   REMARKS
JAMESTOWN      CLOUDY    73  65  75 NE5       29.86R
6HR MIN TEMP:  68; 6HR MAX TEMP:  79;

BISMARCK       MOSUNNY   79  65  62 E18       29.74F
6HR MIN TEMP:  76; 6HR MAX TEMP:  81;

MINOT          MOSUNNY   77  64  64 SE9       29.72R
6HR MIN TEMP:  71; 6HR MAX TEMP:  80; 6HR PCP: TRACE;

MINOT AFB      MOSUNNY   77  68  73 SE8       29.71R
6HR MIN TEMP:  73; 6HR MAX TEMP:  80;

GARRISON         N/A     77  67  71 SE12G22   29.71F
6HR MIN TEMP:  69; 6HR MAX TEMP:  77; 6HR PCP:  0.04;

WILLISTON      SUNNY     83  65  54 SE10      29.65F
6HR MIN TEMP:  79; 6HR MAX TEMP:  87;

DICKINSON      SUNNY     81  68  64 SE16      29.68F
6HR MIN TEMP:  72; 6HR MAX TEMP:  83;

HETTINGER      SUNNY     83  68  60 E12       29.71F
6HR MIN TEMP:  78; 6HR MAX TEMP:  88;

$$

 *****  OTHER OBSERVATIONS NORTHEAST NORTH DAKOTA  *****

CITY           SKY/WX    TMP DP  RH WIND       PRES   REMARKS
WALHALLA         N/A    N/A N/A N/A SE13        N/A
LANGDON        CLOUDY    72  61  68 SE13G20   29.80F
CAVALIER       MOCLDY    73  61  64 SE9       29.84F
GRAFTON        CLOUDY    73  63  68 SE12      29.85F
CANDO          FAIR      73  64  73 E18G24    29.73F
FORT TOTTEN    NOT AVBL
ROLLA          MOCLDY    72  64  78 E15G22    29.77F
RUGBY          FAIR      73  66  78 SE13      29.74R
 ***** THE ABOVE OBSERVATIONS ARE NON NWS ARE NOT QUALITY
        CONTROLLED AND MAY MIS-REPORT RAIN FOR SNOW...
$$

 *****  OTHER OBSERVATIONS SOUTHEAST NORTH DAKOTA *****

CITY           SKY/WX    TMP DP  RH WIND       PRES   REMARKS
COOPERSTOWN    NOT AVBL
VALLEY CITY    CLOUDY    73  68  83 NE6       29.90R
OAKES          NOT AVBL
GWINNER        MOCLDY    73  66  78 SE5       29.84S
BUFFALO        NOT AVBL
WYNDMERE       NOT AVBL
 ***** THE ABOVE OBSERVATIONS ARE NON NWS ARE NOT QUALITY
       CONTROLLED AND MAY MIS-REPORT RAIN FOR SNOW...
$$

  *****  WEATHER ACROSS NORTHERN MINNESOTA  *****

CITY           SKY/WX    TMP DP  RH WIND       PRES   REMARKS
FLAG ISLAND    PTSUNNY   72  57  60 CALM      29.92R
WARROAD        CLOUDY    70  64  83 CALM      29.94R
ROSEAU         CLOUDY    70  64  83 CALM      29.93S
HALLOCK        PTSUNNY   77  64  65 SE9       29.86F
THF RVR FALLS  MOSUNNY   75  59  57 S7        29.91S
6HR MIN TEMP:  72; 6HR MAX TEMP:  75;

HALSTAD          N/A     75  61  61 S5          N/A
FOSSTON        SUNNY     79  57  47 CALM      29.93R
BAUDETTE       CLOUDY    70  59  68 SW3       29.94F
6HR MIN TEMP:  70; 6HR MAX TEMP:  77;

WASKISH        LGT RAIN  68  64  88 CALM      29.94F
CROOKSTON      CLOUDY    75  63  64 S6        29.91R
$$
  *****  WEATHER ACROSS CENTRAL AND WEST MINNESOTA  *****

CITY           SKY/WX    TMP DP  RH WIND       PRES   REMARKS
BEMIDJI        MOSUNNY   73  55  53 CALM      29.94S
PARK RAPIDS    SUNNY     75  57  53 S8        29.92S
6HR MIN TEMP:  72; 6HR MAX TEMP:  77;

WADENA         PTSUNNY   72  61  68 W3        29.92R
DETROIT LAKES  PTSUNNY   73  61  64 S6        29.93S
MOORHEAD       MOSUNNY   75  64  69 S10G16    29.90R
FERGUS FALLS   MOSUNNY   72  59  64 SE10      29.88S
ELBOW LAKE     FAIR      71  62  72 S12       29.88S
MORRIS MN      SUNNY     72  61  68 S13G21    29.85F
STAPLES        CLOUDY    72  57  60 S5        29.93R
WHEATON        CLOUDY    70  61  73 S10G18    29.87R
$$
  *****  WEATHER ELSEWHERE ACROSS MINNESOTA  *****

CITY           SKY/WX    TMP DP  RH WIND       PRES   REMARKS
DULUTH         CLOUDY    71  56  58 SE7       29.94S
6HR MIN TEMP:  71; 6HR MAX TEMP:  78;

INTRNTL FALLS  PTSUNNY   72  57  59 CALM      29.94R
6HR MIN TEMP:  72; 6HR MAX TEMP:  77;

ELY            PTSUNNY   72  55  56 SW3       29.96R
CLOQUET        CLOUDY    73  54  49 S3        29.95R
BRAINERD       SUNNY     74  56  53 S13       29.93S
6HR MIN TEMP:  71; 6HR MAX TEMP:  76;

HIBBING        CLOUDY    73  53  49 SW3       29.96R
6HR MIN TEMP:  73; 6HR MAX TEMP:  78;

ALEXANDRIA     MOSUNNY   72  62  71 S10       29.92S
6HR MIN TEMP:  63; 6HR MAX TEMP:  75; 6HR PCP:  0.29;

SAINT CLOUD    CLOUDY    76  61  59 SW8       29.92S
6HR MIN TEMP:  74; 6HR MAX TEMP:  83;

MINNEAPOLIS    CLOUDY    79  59  50 S7        29.92R
6HR MIN TEMP:  77; 6HR MAX TEMP:  82;

$$

  *****  WEATHER ACROSS SOUTH DAKOTA  *****

CITY           SKY/WX    TMP DP  RH WIND       PRES   REMARKS
SIOUX FALLS    MOSUNNY   72  61  68 S16G24    29.89F
6HR MIN TEMP:  67; 6HR MAX TEMP:  77; 6HR PCP: TRACE;

BROOKINGS      NOT AVBL
WATERTOWN      MOSUNNY   71  60  68 S15G25    29.84F
6HR MIN TEMP:  63; 6HR MAX TEMP:  72; 6HR PCP:  0.46;

HURON          SUNNY     76  63  64 SE24G40   29.75F
6HR MIN TEMP:  73; 6HR MAX TEMP:  80;

SISSETON         N/A     71  64  78 S13       29.83F
ABERDEEN       SUNNY     75  62  64 S23G32    29.78F
6HR MIN TEMP:  69; 6HR MAX TEMP:  80; 6HR PCP: TRACE;

MITCHELL       SUNNY     78  65  63 SE25G40   29.79F
PIERRE         MOSUNNY   91  70  49 SE25G36   29.61F HX  96
6HR MIN TEMP:  87; 6HR MAX TEMP:  98;

MOBRIDGE       MOSUNNY   82  68  62 E21G28    29.68R
RAPID CITY     PTSUNNY   88  72  58 SW5       29.72F HX  94
6HR MIN TEMP:  82; 6HR MAX TEMP:  93;

$$

  *****  SOME WEATHER IN NEARBY STATES *****

CITY           SKY/WX    TMP DP  RH WIND       PRES   REMARKS
GLASGOW MT     MOSUNNY   72  51  47 NW48G60   29.71R
6HR MIN TEMP:  71; 6HR MAX TEMP:  93;

GREAT FALLS MT SUNNY     72  28  19 W23G29    29.92F
6HR MIN TEMP:  69; 6HR MAX TEMP:  80; 6HR PCP: TRACE;

CHEYENNE WY    MOSUNNY   86  46  24 W22G29    30.08F
6HR MIN TEMP:  79; 6HR MAX TEMP:  91;

SCOTTSBLUFF NE PTSUNNY   86  54  33 S24G31    29.90R
6HR MIN TEMP:  85; 6HR MAX TEMP: 105;

OMAHA NE       PTSUNNY   79  60  52 SE18      29.97R
6HR MIN TEMP:  79; 6HR MAX TEMP:  84;

DES MOINES IA  LGT RAIN  74  63  68 NE10      30.12R
6HR MIN TEMP:  73; 6HR MAX TEMP:  81; 6HR PCP: TRACE;

DAVENPORT IA   CLOUDY    73  56  54 SW5       30.08S
6HR MIN TEMP:  73; 6HR MAX TEMP:  78;

CHICAGO IL     MOSUNNY   71  43  36 NE7       30.09S
6HR MIN TEMP:  71; 6HR MAX TEMP:  75;

EAU CLAIRE WI  CLOUDY    76  57  51 SE14      29.94F
6HR MIN TEMP:  76; 6HR MAX TEMP:  81;

LA CROSSE WI   NOT AVBL
$$

  *****  SOME NATIONAL WEATHER *****

CITY           SKY/WX    TMP DP  RH WIND       PRES   REMARKS
LA GUARDIA NY  MOCLDY    77  57  50 N12       29.85R
6HR MIN TEMP:  76; 6HR MAX TEMP:  81;

RALEIGH NC     CLOUDY    73  69  87 N6        29.93R


USA.gov is the U.S. government's official web portal to all federal, state and local government web resources and services.